Terug naar catalogus

STARLINK-35344

ActiefCommunicatieSSO
NORAD 65656·PAYLOAD·🇺🇸 United States

Gelanceerd Sep 19, 2025 vanaf Vandenberg Space Force Base

Loading…

Volgende Passages (komende 24 uur)

TLE

VersSource: CelesTrak SupGP

Epoch: Sep 14, 2026, 21:24 UTC

1 65656C 25211E   26257.89215278  .00003174  00000+0  98518-4 0  2579
2 65656  97.2820 298.2576 0001077 116.7135  29.3565 15.33436333    11

Volg STARLINK-35344 in realtime met AllMySat

Download on the App Store